Slayton, MN

10:34 PM CDT on September 21, 2017 (GMT -0500)
Slayton

Weather History for KDVP - January, 2014

Change the Weather History Date:

Wednesday, January 15, 2014

  Actual Average (KOTG) Record (KOTG)
Temperature  
Mean Temperature 16 °F -  
Max Temperature 35 °F 21 °F 49 °F (1990)
Min Temperature -2 °F 6 °F -29 °F (1972)
Degree Days  
Heating Degree Days 48    
Moisture  
Dew Point 10 °F    
Average Humidity 80    
Maximum Humidity 92    
Minimum Humidity 73    
Precipitation  
Precipitation 0.00 in - - ()
Sea Level Pressure  
Sea Level Pressure 29.86 in    
Wind  
Wind Speed 13 mph (WSW)    
Max Wind Speed 28 mph    
Max Gust Speed 34 mph    
Visibility 10 miles    
Events      
Averages and records for this station are not official NWS values.
T = Trace of Precipitation, MM = Missing Value Source: NWS Daily Summary

Daily Weather History Graph

Daily Weather History Graph

Search for Another Location

Airport or City:

Trip Planner

Search our weather history database for the weather conditions in past years. The results will help you decide how hot, cold, wet, or windy it might be!

Date:

Astronomy

Jan. 15, 2014 Rise Set
Actual Time 7:54 AM CST 5:11 PM CST
Civil Twilight 7:22 AM CST 5:43 PM CST
Nautical Twilight 6:46 AM CST 6:18 PM CST
Astronomical Twilight 6:12 AM CST 6:53 PM CST
Moon 5:11 PM CST (1/15) 7:09 AM CST (1/15)
Length of Visible Light 10h 20m
Length of Day
9h 16m
Full, 100% of the Moon is Illuminated
Jan 15
Full
Jan 15
Full
Jan 23
Last Quarter
Jan 30
New
Feb 6
First Quarter

Hourly Weather History & Observations

Time (CST) Temp. Windchill Dew Point Humidity Pressure Visibility Wind Dir Wind Speed Gust Speed Precip Events Conditions
12:05 AM 10.4 °F -4.8 °F 6.8 °F 85% 30.14 in 10.0 mi NNW 12.7 mph 20.7 mph N/A   Overcast
12:25 AM 10.4 °F -5.4 °F 6.8 °F 85% 30.14 in 10.0 mi North 13.8 mph - N/A   Overcast
12:45 AM 10.4 °F -5.4 °F 5.0 °F 79% 30.14 in 10.0 mi NNW 13.8 mph 20.7 mph N/A   Overcast
1:05 AM 10.4 °F -6.0 °F 5.0 °F 79% 30.13 in 10.0 mi NNW 15.0 mph - N/A   Overcast
1:25 AM 10.4 °F -5.4 °F 5.0 °F 79% 30.13 in 10.0 mi NNW 13.8 mph - N/A   Overcast
1:45 AM 10.4 °F -3.3 °F 5.0 °F 79% 30.12 in 7.0 mi NNW 10.4 mph - N/A   Overcast
2:05 AM 10.4 °F -4.1 °F 5.0 °F 79% 30.13 in 10.0 mi NNW 11.5 mph 18.4 mph N/A   Overcast
2:25 AM 10.4 °F -4.1 °F 5.0 °F 79% 30.14 in 10.0 mi NW 11.5 mph - N/A   Overcast
2:45 AM 10.4 °F -4.1 °F 5.0 °F 79% 30.14 in 10.0 mi NW 11.5 mph - N/A   Overcast
3:05 AM 8.6 °F -3.7 °F 5.0 °F 85% 30.14 in 7.0 mi WNW 8.1 mph - N/A   Overcast
3:25 AM 8.6 °F -3.7 °F 5.0 °F 85% 30.13 in 10.0 mi WNW 8.1 mph - N/A   Mostly Cloudy
3:45 AM 6.8 °F -4.8 °F 3.2 °F 85% 30.14 in 10.0 mi WNW 6.9 mph - N/A   Mostly Cloudy
4:05 AM 6.8 °F -5.9 °F 3.2 °F 85% 30.13 in 10.0 mi West 8.1 mph - N/A   Overcast
4:25 AM 5.0 °F -5.6 °F 1.4 °F 85% 30.13 in 10.0 mi West 5.8 mph - N/A   Overcast
4:45 AM 3.2 °F -10.3 °F 1.4 °F 92% 30.13 in 10.0 mi West 8.1 mph - N/A   Mostly Cloudy
5:25 AM 1.4 °F -9.9 °F -0.4 °F 92% 30.11 in 10.0 mi West 5.8 mph - N/A   Clear
5:45 AM 1.4 °F -12.5 °F -2.2 °F 85% 30.10 in 10.0 mi West 8.1 mph - N/A   Clear
6:05 AM 1.4 °F -11.3 °F -2.2 °F 85% 30.09 in 10.0 mi West 6.9 mph - N/A   Clear
6:25 AM 1.4 °F - -2.2 °F 85% 30.08 in 10.0 mi Calm Calm - N/A   Clear
6:45 AM -0.4 °F -8.3 °F -4.0 °F 85% 30.08 in 10.0 mi West 3.5 mph - N/A   Clear
7:05 AM -0.4 °F - -4.0 °F 85% 30.07 in 10.0 mi Calm Calm - N/A   Clear
7:25 AM -2.2 °F -14.2 °F -4.0 °F 92% 30.06 in 10.0 mi WSW 5.8 mph - N/A   Clear
7:45 AM -2.2 °F -18.0 °F -5.8 °F 85% 30.07 in 10.0 mi SW 9.2 mph - N/A   Clear
8:05 AM -2.2 °F -16.8 °F -5.8 °F 85% 30.06 in 10.0 mi SSW 8.1 mph - N/A   Clear
8:25 AM -2.2 °F -15.6 °F -5.8 °F 85% 30.07 in 10.0 mi SW 6.9 mph - N/A   Clear
8:45 AM -2.2 °F -14.2 °F -4.0 °F 92% 30.05 in 10.0 mi SSW 5.8 mph - N/A   Clear
9:05 AM -0.4 °F -10.4 °F -4.0 °F 85% 30.05 in 10.0 mi South 4.6 mph - N/A   Clear
9:25 AM 1.4 °F -8.3 °F -2.2 °F 85% 30.03 in 10.0 mi South 4.6 mph - N/A   Clear
9:45 AM 1.4 °F -11.3 °F -2.2 °F 85% 30.02 in 10.0 mi South 6.9 mph - N/A   Clear
10:05 AM 3.2 °F -9.1 °F -0.4 °F 85% 30.01 in 10.0 mi South 6.9 mph - N/A   Clear
10:25 AM 6.8 °F -5.9 °F 1.4 °F 79% 30.00 in 10.0 mi SSW 8.1 mph - N/A   Clear
10:45 AM 8.6 °F -3.7 °F 3.2 °F 79% 29.99 in 10.0 mi SSW 8.1 mph - N/A   Clear
11:05 AM 8.6 °F -7.7 °F 3.2 °F 79% 29.97 in 10.0 mi SSW 13.8 mph - N/A   Mostly Cloudy
11:25 AM 10.4 °F -7.7 °F 5.0 °F 79% 29.96 in 10.0 mi SW 18.4 mph - N/A   Overcast
11:45 AM 10.4 °F -6.6 °F 5.0 °F 79% 29.93 in 10.0 mi SSW 16.1 mph - N/A   Overcast
12:05 PM 10.4 °F -6.6 °F 5.0 °F 79% 29.89 in 10.0 mi SSW 16.1 mph - N/A   Overcast
12:25 PM 10.4 °F -7.2 °F 5.0 °F 79% 29.88 in 10.0 mi SSW 17.3 mph 20.7 mph N/A   Overcast
12:45 PM 12.2 °F -5.8 °F 5.0 °F 73% 29.85 in 10.0 mi SSW 19.6 mph - N/A   Overcast
1:05 PM 14.0 °F -3.9 °F 6.8 °F 73% 29.81 in 10.0 mi SSW 20.7 mph 24.2 mph N/A   Overcast
1:25 PM 14.0 °F -4.3 °F 8.6 °F 79% 29.78 in 10.0 mi SSW 21.9 mph 27.6 mph N/A   Overcast
1:45 PM 15.8 °F -2.3 °F 10.4 °F 79% 29.77 in 10.0 mi SSW 23.0 mph 26.5 mph N/A   Overcast
2:05 PM 17.6 °F 0.5 °F 10.4 °F 73% 29.74 in 10.0 mi South 21.9 mph 27.6 mph N/A   Overcast
2:25 PM 17.6 °F 1.7 °F 10.4 °F 73% 29.73 in 10.0 mi South 18.4 mph 25.3 mph N/A   Overcast
2:45 PM 19.4 °F 3.2 °F 12.2 °F 74% 29.72 in 10.0 mi SSW 20.7 mph - N/A   Overcast
3:05 PM 19.4 °F 3.6 °F 14.0 °F 80% 29.70 in 10.0 mi South 19.6 mph 26.5 mph N/A   Overcast
3:25 PM 21.2 °F 6.0 °F 15.8 °F 80% 29.68 in 10.0 mi South 19.6 mph 26.5 mph N/A   Overcast
3:45 PM 21.2 °F 3.9 °F 15.8 °F 80% 29.67 in 10.0 mi SSW 26.5 mph 33.4 mph N/A   Overcast
4:05 PM 21.2 °F 3.9 °F 15.8 °F 80% 29.67 in 10.0 mi SSW 26.5 mph 33.4 mph N/A   Overcast
4:25 PM 23.0 °F 6.6 °F 15.8 °F 74% 29.66 in 7.0 mi SSW 25.3 mph 32.2 mph N/A   Overcast
4:45 PM 23.0 °F 6.6 °F 15.8 °F 74% 29.64 in 10.0 mi SSW 25.3 mph 28.8 mph N/A   Overcast
5:05 PM 23.0 °F 8.0 °F 15.8 °F 74% 29.65 in 10.0 mi SSW 20.7 mph - N/A   Overcast
5:25 PM 23.0 °F 9.6 °F 17.6 °F 80% 29.64 in 10.0 mi South 16.1 mph 23.0 mph N/A   Mostly Cloudy
5:45 PM 23.0 °F 10.1 °F 17.6 °F 80% 29.63 in 10.0 mi South 15.0 mph 20.7 mph N/A   Clear
6:05 PM 24.8 °F 10.3 °F 17.6 °F 74% 29.61 in 10.0 mi SSW 20.7 mph - N/A   Clear
6:25 PM 24.8 °F 8.4 °F 17.6 °F 74% 29.58 in 10.0 mi SW 27.6 mph - N/A   Clear
6:45 PM 24.8 °F 9.0 °F 19.4 °F 80% 29.56 in 10.0 mi SW 25.3 mph 34.5 mph N/A   Clear
7:05 PM 26.6 °F 11.1 °F 19.4 °F 74% 29.57 in 10.0 mi SW 26.5 mph 34.5 mph N/A   Clear
7:25 PM 28.4 °F 14.4 °F 21.2 °F 74% 29.58 in 10.0 mi WSW 23.0 mph 28.8 mph N/A   Clear
7:45 PM 28.4 °F 14.4 °F 21.2 °F 74% 29.60 in 10.0 mi WSW 23.0 mph - N/A   Clear
8:05 PM 32.0 °F 18.6 °F 26.6 °F 80% 29.56 in 10.0 mi WSW 25.3 mph - N/A   Mostly Cloudy
8:25 PM 32.0 °F 19.5 °F 26.6 °F 80% 29.54 in 10.0 mi WSW 21.9 mph - N/A   Mostly Cloudy
8:45 PM 33.8 °F 22.2 °F 26.6 °F 75% 29.54 in 10.0 mi WSW 20.7 mph 27.6 mph N/A   Scattered Clouds
9:05 PM 32.0 °F 20.5 °F 26.6 °F 80% 29.53 in 10.0 mi WSW 18.4 mph - N/A   Clear
9:25 PM 32.0 °F 20.5 °F 26.6 °F 80% 29.51 in 10.0 mi WSW 18.4 mph - N/A   Clear
9:45 PM 32.0 °F 21.6 °F 26.6 °F 80% 29.53 in 10.0 mi West 15.0 mph - N/A   Clear
10:05 PM 35.6 °F 24.8 °F 28.4 °F 75% 29.52 in 10.0 mi West 19.6 mph - N/A   Clear
10:25 PM 35.6 °F 24.0 °F 28.4 °F 75% 29.53 in 10.0 mi West 23.0 mph 26.5 mph N/A   Clear
10:45 PM 35.6 °F 24.2 °F 28.4 °F 75% 29.53 in 10.0 mi WNW 21.9 mph 28.8 mph N/A   Clear
11:05 PM 35.6 °F 24.2 °F 28.4 °F 75% 29.53 in 10.0 mi WNW 21.9 mph 28.8 mph N/A   Clear
11:25 PM 35.6 °F 24.5 °F 28.4 °F 75% 29.53 in 10.0 mi West 20.7 mph - N/A   Clear
11:45 PM 35.6 °F 24.2 °F 28.4 °F 75% 29.51 in 10.0 mi West 21.9 mph 26.5 mph N/A   Clear